When you browse on this site, cookies collect data to enhance your experience and personalize the content and advertising you see.
Visit our Privacy Policy to learn more. By continuing to use the site, you agree to this use of cookies and data.
  • In United Kingdom
  • List of Countries
  • For 7 days
  • Water Temperature
  • Weather Map
  • Weather Widgets
  • user-avatar
    Login

    Hourly Weather Wurzburg

    Today, 27 January, Monday

    Time Temperature Precipitation Wind Pressure Humidity
    00:00 +3°C° 0 mm 1 mps 746 mmHg 90%
    01:00 +3°C° 0 mm 1 mps 746 mmHg 91%
    02:00 +3°C° 0 mm 1 mps 745 mmHg 92%
    03:00 +3°C° 0 mm 1 mps 745 mmHg 92%
    04:00 +3°C° 0 mm 1 mps 744 mmHg 92%
    05:00 +2°C° 0 mm 2 mps 744 mmHg 93%
    06:00 +3°C° 0 mm 2 mps 744 mmHg 93%
    07:00 +3°C° 0 mm 2 mps 744 mmHg 94%
    08:00 +3°C° 0 mm 2 mps 744 mmHg 93%
    09:00 +3°C° 0 mm 3 mps 743 mmHg 92%
    10:00 +3°C° 0 mm 3 mps 743 mmHg 91%
    11:00 +4°C° 0 mm 3 mps 743 mmHg 88%
    12:00 +5°C° 0 mm 3 mps 742 mmHg 85%
    13:00 +6°C° 0 mm 4 mps 742 mmHg 82%
    14:00 +7°C° 0 mm 3 mps 741 mmHg 84%
    15:00 +5°C° 0 mm 3 mps 740 mmHg 86%
    16:00 +6°C° 0 mm 2 mps 740 mmHg 88%
    17:00 +5°C° 0.6 mm 3 mps 739 mmHg 89%
    18:00 +5°C° 0.6 mm 3 mps 739 mmHg 91%
    19:00 +4°C° 0.6 mm 3 mps 738 mmHg 92%
    20:00 +5°C° 0.3 mm 4 mps 737 mmHg 92%
    21:00 +5°C° 0.3 mm 4 mps 737 mmHg 91%
    22:00 +5°C° 0.3 mm 5 mps 736 mmHg 91%
    23:00 +4°C° 0.2 mm 6 mps 735 mmHg 89%

    Tomorrow, 28 January, Tuesday

    Time Temperature Precipitation Wind Pressure Humidity
    00:00 +4°C° 0.2 mm 6 mps 734 mmHg 88%
    01:00 +4°C° 0.2 mm 7 mps 734 mmHg 86%
    02:00 +4°C° 0.7 mm 7 mps 733 mmHg 87%
    03:00 +4°C° 0.7 mm 7 mps 732 mmHg 88%
    04:00 +4°C° 0.7 mm 7 mps 732 mmHg 89%
    05:00 +4°C° 0.3 mm 7 mps 731 mmHg 89%
    06:00 +4°C° 0.3 mm 6 mps 731 mmHg 88%
    07:00 +4°C° 0.3 mm 6 mps 731 mmHg 88%
    08:00 +4°C° 0.8 mm 7 mps 730 mmHg 87%
    09:00 +2°C° 0.8 mm 9 mps 730 mmHg 86%
    10:00 +2°C° 0.8 mm 10 mps 730 mmHg 86%
    11:00 +2°C° 0.3 mm 10 mps 730 mmHg 80%
    12:00 +2°C° 0.3 mm 11 mps 731 mmHg 74%
    13:00 +2°C° 0.3 mm 11 mps 731 mmHg 68%
    14:00 +2°C° 0.2 mm 11 mps 732 mmHg 71%
    15:00 +1°C° 0.2 mm 10 mps 732 mmHg 73%
    16:00 +1°C° 0.2 mm 10 mps 733 mmHg 75%
    17:00 0°C° 0.1 mm 9 mps 733 mmHg 75%
    18:00 0°C° 0.1 mm 8 mps 734 mmHg 74%
    19:00 0°C° 0.1 mm 8 mps 734 mmHg 74%
    20:00 -1°C° 0 mm 7 mps 734 mmHg 76%
    21:00 -1°C° 0 mm 7 mps 735 mmHg 78%
    22:00 -1°C° 0 mm 7 mps 735 mmHg 81%
    23:00 -1°C° 0 mm 6 mps 735 mmHg 82%

    Day after tomorrow, 29 January, Wednesday

    Time Temperature Precipitation Wind Pressure Humidity
    00:00 -1°C° 0 mm 6 mps 735 mmHg 82%
    01:00 -1°C° 0 mm 6 mps 735 mmHg 83%
    02:00 -1°C° 0 mm 6 mps 735 mmHg 84%
    03:00 -1°C° 0 mm 6 mps 736 mmHg 86%
    04:00 -1°C° 0 mm 7 mps 736 mmHg 87%
    05:00 -1°C° 0 mm 6 mps 736 mmHg 85%
    06:00 -1°C° 0 mm 6 mps 737 mmHg 84%
    07:00 -2°C° 0 mm 6 mps 737 mmHg 82%
    08:00 -1°C° 0 mm 7 mps 738 mmHg 81%
    09:00 -1°C° 0 mm 7 mps 738 mmHg 80%
    10:00 -1°C° 0 mm 7 mps 739 mmHg 79%
    11:00 0°C° 0 mm 8 mps 739 mmHg 77%
    12:00 0°C° 0 mm 8 mps 740 mmHg 75%
    13:00 +1°C° 0 mm 8 mps 740 mmHg 74%
    14:00 +2°C° 0 mm 7 mps 740 mmHg 72%
    15:00 0°C° 0 mm 7 mps 740 mmHg 70%
    16:00 +1°C° 0 mm 6 mps 741 mmHg 67%
    17:00 +1°C° 0.1 mm 6 mps 741 mmHg 70%
    18:00 0°C° 0.1 mm 5 mps 742 mmHg 73%
    19:00 0°C° 0.1 mm 5 mps 742 mmHg 76%
    20:00 0°C° 0 mm 5 mps 743 mmHg 80%
    21:00 0°C° 0 mm 5 mps 743 mmHg 84%
    22:00 -1°C° 0 mm 5 mps 744 mmHg 88%
    23:00 -1°C° 0 mm 5 mps 744 mmHg 89%

    30 January, Thursday

    Time Temperature Precipitation Wind Pressure Humidity
    00:00 -1°C° 0 mm 4 mps 745 mmHg 90%
    01:00 -1°C° 0 mm 4 mps 745 mmHg 91%
    02:00 -1°C° 0 mm 4 mps 745 mmHg 92%
    03:00 -1°C° 0 mm 4 mps 745 mmHg 93%
    04:00 0°C° 0 mm 3 mps 746 mmHg 94%
    05:00 0°C° 0 mm 3 mps 746 mmHg 94%
    06:00 -1°C° 0 mm 4 mps 746 mmHg 94%
    07:00 0°C° 0 mm 4 mps 746 mmHg 93%
    08:00 0°C° 0 mm 4 mps 746 mmHg 91%
    09:00 +1°C° 0 mm 4 mps 746 mmHg 89%
    10:00 +1°C° 0 mm 5 mps 746 mmHg 87%
    11:00 +2°C° 0 mm 5 mps 745 mmHg 83%
    12:00 +4°C° 0 mm 4 mps 745 mmHg 80%
    13:00 +4°C° 0 mm 4 mps 745 mmHg 76%
    14:00 +4°C° 0 mm 4 mps 744 mmHg 77%
    15:00 +4°C° 0 mm 3 mps 744 mmHg 78%
    16:00 +4°C° 0 mm 3 mps 743 mmHg 80%
    17:00 +4°C° 0 mm 2 mps 743 mmHg 83%
    18:00 +3°C° 0 mm 2 mps 743 mmHg 86%
    19:00 +2°C° 0 mm 2 mps 742 mmHg 89%
    20:00 +2°C° 0 mm 2 mps 742 mmHg 87%
    21:00 +2°C° 0 mm 2 mps 742 mmHg 86%
    22:00 +2°C° 0 mm 2 mps 741 mmHg 85%
    23:00 +2°C° 0 mm 3 mps 741 mmHg 83%

    31 January, Friday

    Time Temperature Precipitation Wind Pressure Humidity
    00:00 +2°C° 0 mm 3 mps 741 mmHg 81%
    01:00 +3°C° 0 mm 4 mps 740 mmHg 79%
    02:00 +4°C° 0 mm 4 mps 740 mmHg 82%
    03:00 +3°C° 0 mm 5 mps 740 mmHg 85%
    04:00 +4°C° 0 mm 6 mps 739 mmHg 88%
    05:00 +5°C° 0 mm 6 mps 739 mmHg 90%
    06:00 +7°C° 0 mm 6 mps 739 mmHg 92%
    07:00 +7°C° 0 mm 6 mps 739 mmHg 94%
    08:00 +8°C° 0.1 mm 6 mps 740 mmHg 93%
    09:00 +8°C° 0.1 mm 6 mps 740 mmHg 92%
    10:00 +9°C° 0.1 mm 6 mps 741 mmHg 91%
    11:00 +9°C° 0.1 mm 6 mps 741 mmHg 91%
    12:00 +9°C° 0.1 mm 6 mps 741 mmHg 90%
    13:00 +10°C° 0.1 mm 6 mps 741 mmHg 90%
    14:00 +10°C° 0 mm 6 mps 741 mmHg 91%
    15:00 +9°C° 0 mm 6 mps 742 mmHg 92%
    16:00 +9°C° 0 mm 6 mps 742 mmHg 94%
    17:00 +9°C° 0 mm 5 mps 742 mmHg 93%
    18:00 +9°C° 0 mm 5 mps 742 mmHg 92%
    19:00 +9°C° 0 mm 5 mps 742 mmHg 92%
    20:00 +9°C° 0.1 mm 5 mps 742 mmHg 92%
    21:00 +9°C° 0.1 mm 5 mps 742 mmHg 93%
    22:00 +9°C° 0.1 mm 5 mps 742 mmHg 94%
    23:00 +9°C° 0.4 mm 5 mps 742 mmHg 94%

    1 February, Saturday

    Time Temperature Precipitation Wind Pressure Humidity
    00:00 +9°C° 0.4 mm 5 mps 743 mmHg 94%
    01:00 +9°C° 0.4 mm 5 mps 743 mmHg 94%
    02:00 +9°C° 0.2 mm 5 mps 743 mmHg 93%
    03:00 +10°C° 0.2 mm 4 mps 743 mmHg 93%
    04:00 +10°C° 0.2 mm 4 mps 743 mmHg 93%
    05:00 +10°C° 0 mm 4 mps 743 mmHg 93%
    06:00 +10°C° 0 mm 4 mps 743 mmHg 94%
    07:00 +8°C° 0 mm 4 mps 743 mmHg 94%
    08:00 +10°C° 0 mm 4 mps 743 mmHg 92%
    09:00 +10°C° 0 mm 4 mps 743 mmHg 91%
    10:00 +9°C° 0 mm 5 mps 743 mmHg 89%
    11:00 +9°C° 0.1 mm 5 mps 743 mmHg 89%
    12:00 +10°C° 0.1 mm 5 mps 743 mmHg 88%
    13:00 +10°C° 0.1 mm 5 mps 743 mmHg 88%
    14:00 +10°C° 0 mm 5 mps 743 mmHg 88%
    15:00 +10°C° 0 mm 5 mps 743 mmHg 88%
    16:00 +11°C° 0 mm 4 mps 742 mmHg 89%
    17:00 +10°C° 0.1 mm 5 mps 742 mmHg 89%
    18:00 +10°C° 0.1 mm 5 mps 742 mmHg 90%
    19:00 +10°C° 0.1 mm 6 mps 742 mmHg 91%
    20:00 +10°C° 0.4 mm 6 mps 742 mmHg 91%
    21:00 +10°C° 0.4 mm 6 mps 742 mmHg 90%
    22:00 +11°C° 0.4 mm 6 mps 743 mmHg 90%
    23:00 +11°C° 0 mm 6 mps 742 mmHg 90%
    Show more